Weather in Shyshaky

Ukraine / Poltava Region     49°52′41″N   34°00′15″E
temp.,
°C
wind,
m/s
gust,
m/s
humid.,
%
clouds,
%
prec.,
mm/h
press.,
hPa
HPBL,
m
10 august, wed
wed1000:00+18n410845 0.0 1019236
03:00+17n410925 0.1 1018244
06:00+16nne4109431 0.1 1018235
09:00+22nne5770100 0.1 1018540
12:00+25nne6656100 0.0 10171014
15:00+27nne6653100 0.0 10161468
18:00+24n81064100 0.1 1016750
21:00+20n61382100 0.1 1016450
11 august, thu
thu1100:00+19nne61288100 0.3 1015400
03:00+19nne6118796 0.3 1013325
06:00+18nne599143 0.1 1014247
09:00+24ene695975 0.1 1014477
12:00+29e674096 0.0 1014973
15:00+31ene67336 0.0 10141988
18:00+27ne364592 0.0 1014285
21:00+25ne5125899 0.0 1015363
12 august, fri
fri1200:00+24ne41347100 0.0 1014366
03:00+23ene71355100 0.1 1015444
06:00+23ene51355100 0.0 1016500
09:00+23nne51356100 0.1 1016574
12:00+25ene71358100 0.0 1017720
15:00+30e91033100 0.0 10161941
18:00+26ene51243100 0.1 1016494
21:00+27ene7144379 0.1 1016551
13 august, sat
sat1300:00+24ne61356100 0.0 1016379
03:00+24ene7145494 0.0 1016458
06:00+22ene5136042 0.0 1016433
09:00+26e6115477 0.4 1015616
12:00+28e7114753 0.0 1015832
15:00+34e7102557 0.0 10132697
18:00+34e572398 0.0 1012908
21:00+29ene61237100 0.0 1012321
14 august, sun
sun1400:00+26ene7174153 0.0 1012529
03:00+25e7164758 0.0 1012418
06:00+23e6145190 0.0 1012278
09:00+28ese61039100 0.0 1012354
12:00+34ese71122100 0.0 10121719
15:00+36ese81018100 0.0 10113795
18:00+33ene51025100 0.0 1010365
21:00+30e91429100 0.0 1011513